Location: Limoges
(45.8354°N, 1.2645°E)
Time: 17:04:55
(UTC+02:00)

Vanguard 2 Rocket - Pass Details

Date: 26 February 2024
Orbit: 555 x 3307 km, 32.9° (Epoch: 23 April)

Event Time Altitude Azimuth Distance (km) Brightness Sun altitude
Rises 22:24:17 0° 270° (W) 6,607 11.9 -38.9°
Reaches altitude 10° 22:31:44 10° 251° (WSW) 5,990 11.3 -40.0°
Maximum altitude 22:40:07 15° 224° (SW) 5,822 11.0 -41.2°
Drops below altitude 10° 22:48:52 10° 198° (SSW) 6,227 10.9 -42.4°
Enters shadow 22:51:22 - 191° (SSW) 6,430 11.0 -42.7°
